This demonstration page uses our WeatherBlox Daily Observations layout. Learn more.

Left ArrowRight Arrow

Hourly Observations for November 30, 2022

Temp ( °F °C ) Dew Point ( °F °C ) Humidity (%) Winds ( mph kmh ) Pressure ( in mb ) Visibility ( mi km ) Precip ( " mm )
12:53 am 00:53 Clear 2 -16.7 -3 -19.4 79 79 E 7 11 30.27 1025 10 16 0.00 0.00
1:53 am 01:53 Clear 2 -16.7 -3 -19.4 79 79 E 9 15 30.26 1025 10 16 0.00 0.00
2:53 am 02:53 Clear 2 -16.7 -3 -19.4 79 79 ENE 13 20 30.23 1024 10 16 0.00 0.00
3:53 am 03:53 Clear 2 -16.7 -3 -19.4 79 79 ENE 16 26 30.22 1023 10 16 0.00 0.00
4:53 am 04:53 Clear 1 -17.2 -3 -19.4 83 83 ENE 14 22 30.19 1022 10 16 0.00 0.00
5:53 am 05:53 Clear 2 -16.7 -2 -18.9 83 83 ENE 15 24 30.16 1021 10 16 0.00 0.00
6:53 am 06:53 Clear 2 -16.7 -2 -18.9 83 83 ENE 13 20 30.14 1021 10 16 0.00 0.00
7:53 am 07:53 Sunny 4 -15.6 -1 -18.3 80 80 ENE 16 26 30.10 1019 10 16 0.00 0.00
8:53 am 08:53 Mostly Cloudy 5 -15 0 -17.8 79 79 ENE 20 31 30.07 1018 10 16 0.00 0.00
9:53 am 09:53 Cloudy 7 -13.9 2 -16.7 79 79 E 20 31 30.04 1017 10 16 0.00 0.00
10:53 am 10:53 Cloudy 11 -11.7 5 -15 76 76 E 22 35 29.98 1015 10 16 0.00 0.00
11:53 am 11:53 Mostly Cloudy 18 -7.8 9 -12.8 67 67 E 23 37 29.91 1013 10 16 0.00 0.00
12:53 pm 12:53 Partly Cloudy 21 -6.1 9 -12.8 59 59 E 20 31 29.86 1011 10 16 0.00 0.00
1:53 pm 13:53 Cloudy 22 -5.6 10 -12.2 60 60 E 17 28 29.81 1009 10 16 0.00 0.00
2:53 pm 14:53 Cloudy 22 -5.6 10 -12.2 60 60 E 12 19 29.79 1009 10 16 0.00 0.00
3:53 pm 15:53 Cloudy 24 -4.4 12 -11.1 59 59 E 10 17 29.74 1007 10 16 0.00 0.00
4:53 pm 16:53 Cloudy 24 -4.4 12 -11.1 59 59 ENE 14 22 29.72 1007 10 16 0.00 0.00
5:53 pm 17:53 Mostly Cloudy 22 -5.6 12 -11.1 65 65 E 10 17 29.71 1006 10 16 0.00 0.00
6:53 pm 18:53 Cloudy 20 -6.7 12 -11.1 71 71 ENE 9 15 29.70 1006 10 16 0.00 0.00
7:53 pm 19:53 Cloudy 19 -7.2 12 -11.1 74 74 ENE 6 9 29.68 1005 10 16 0.00 0.00
8:53 pm 20:53 Cloudy 19 -7.2 12 -11.1 74 74 NE 7 11 29.67 1005 10 16 0.00 0.00
9:53 pm 21:53 Partly Cloudy 18 -7.8 11 -11.7 73 73 Calm 29.70 1006 10 16 0.00 0.00
10:53 pm 22:53 Mostly Clear 16 -8.9 11 -11.7 80 80 Calm 29.70 1006 10 16 0.00 0.00
11:53 pm 23:53 Clear 15 -9.4 11 -11.7 83 83 W 7 11 29.72 1006 10 16 0.00 0.00

Powered by AerisWeather